OBJECT BE, 61787

Orbit data source: Space-Track

You're viewing an Uncataloged Satellite

Recently launched and/or uncataloged satellites may have evolving metadata. Metadata may include but not limited to: Owner, Maufacturer, Bus, Motor, and Mission.

OBJECT BE, 61787 is a satellite in SSO that was launched on Mon, 04 Nov 2024 UTC via a SOYUZ-2-1B launch vehicle from the Vostochny Cosmodrome (VOSTO). Unknown objects in Earth's orbit typically refer to objects detected orbiting the Earth but have not yet been identified or cataloged. These objects could be anything from previously untracked satellites, spent rocket stages, debris from satellite collisions, or even natural meteoroids temporarily captured by Earth's gravity.

Loading next visibility...
Identifier
61787, 2024-199BE
Orbit
SSO
Country
Flag of TBDTBD
Related business
None
Manufacturer
Unknown
Mission
Operational Amateur Technology
Bus & Motor
Unknown
Mass
Unknown
Launch date (UTC)
2024-11-04 (2 years ago)
Launch vehicle
SOYUZ-2-1B
Launch site
Vostochny Cosmodrome (VOSTO)
Object type
Unknown
Shape & HBR
Box, 0.1 m
Radar Cross Section
0.035 m², Medium (>0.1 m² and < 1m²)

Expand to show TLE details & history
Last TLE update: 12 hours ago

TLE from 12 hours ago
0 OBJECT BE
1 61787U 24199BE  26145.58492751  .00009359  00000-0  26819-3 0  9998
2 61787  97.3044  14.7326 0014401  35.1920 325.0272 15.36020133133621
Epoch: 2026-05-25T14:02Z
TLE epoch observation values (Epoch: 2026-05-25T14:02:17.736Z)
Latitude
-0.00007°
Longitude
-79.0119°
Altitude
452.943 km
Speed
7.645 km/s
True Right ascension
00h 58m 55s
True Declination
0° 00' 00"
Sunlit
Object was in daylight at epoch
Visualization orbit readout
Latitude
Unknown
Longitude
Unknown
Altitude
Unknown
Speed
Unknown
Apparent Right ascension
Unknown
Apparent Declination
Unknown
Sunlit
N/A
Visualization observer readout
Local Sidereal Time
11:39:37
Azimuth
Unknown
Elevation
Unknown
Doppler factor
Unknown
Orbital elements
Apogee altitude
464.672 km
Perigee altitude
444.992 km
Semi-major axis
6,832.969 km
Eccentricity
0.00144
Inclination
97.3044°
RAAN
14.7326°
Arg. of periapsis
35.192°
True anomaly
324.93247°
Mean anomaly
325.0272°
Eccentric anomaly
324.97985°
Mean motion
3.84263 °/min
Orbital period
93.69 mins
BSTAR
0.00026819
Loading maneuver chart data...
Computing Atmospheric mass density...
Loading historical data...
Loading historical data...
Loading historical data...
Loading historical data...
Loading historical data...
Loading historical data...
Loading historical data...

Documentation

Showing up to 5 results
|